ワイズ彗星

317P/WISE (2005)

English version
Home page
Updated on November 3, 2020

---------------------------------------------------------------------

・ プロフィール

・ 軌道要素

Epoch 2005 July 9.0 TT = JDT 2453560.5                                          
T 2005 July 8.02465 TT                                  Bell                    
q   1.1960365            (2000.0)            P               Q                  
n   0.19741662     Peri.  328.43514     -0.33963603     +0.92292784             
a   2.9211032      Node   281.17070     -0.81990130     -0.38494453             
e   0.5905532      Incl.   10.64657     -0.46087875     +0.00468013             
P   4.99                                                                        
From 93 observations 2005 July 28-2020 Feb. 1, mean residual 0".6.              

・ 光度変化

        m1 = 19.0 + 5 logΔ + 10.0 log r

---------------------------------------------------------------------

軌道要素はM.P.E.C. 2020-C98に掲載されたものです。
光度グラフはComet for Windowsで作成したものです。

---------------------------------------------------------------------

Copyright(C) Seiichi Yoshida (comet@aerith.net). All rights reserved.